Time,TemperatureF,DewpointF,PressureIn,WindDirection,WindDirectionDegrees,WindSpeedMPH,WindSpeedGustMPH,Humidity,HourlyPrecipIn,Conditions,Clouds,dailyrainin,SoftwareType,DateUTC
2013-07-14 00:04:00,71.5,71.5,30.34,SW,224,0.0,0.0,100,0.00,,,0.00,WUHU216DAVISWMX,2013-07-14 04:04:00,
2013-07-14 00:09:00,71.6,71.6,30.34,SW,224,0.0,0.0,100,0.00,,,0.00,WUHU216DAVISWMX,2013-07-14 04:09:00,
2013-07-14 00:14:00,71.4,71.4,30.34,SW,224,0.0,0.0,100,0.00,,,0.00,WUHU216DAVISWMX,2013-07-14 04:14:00,
2013-07-14 00:19:00,71.1,71.1,30.34,SW,224,0.0,0.0,100,0.00,,,0.00,WUHU216DAVISWMX,2013-07-14 04:19:00,
2013-07-14 00:24:00,71.3,71.3,30.35,SW,224,0.0,0.0,100,0.00,,,0.00,WUHU216DAVISWMX,2013-07-14 04:24:00,
2013-07-14 00:29:00,70.8,70.8,30.35,SW,224,0.0,0.0,100,0.00,,,0.00,WUHU216DAVISWMX,2013-07-14 04:29:00,
2013-07-14 00:34:00,71.0,71.0,30.35,SW,224,0.0,0.0,100,0.00,,,0.00,WUHU216DAVISWMX,2013-07-14 04:34:00,
2013-07-14 00:39:00,71.0,71.0,30.35,SW,224,0.0,0.0,100,0.00,,,0.00,WUHU216DAVISWMX,2013-07-14 04:39:00,
2013-07-14 00:44:00,70.6,70.6,30.35,SW,224,0.0,0.0,100,0.00,,,0.00,WUHU216DAVISWMX,2013-07-14 04:44:00,
2013-07-14 00:49:00,70.6,70.6,30.35,SW,224,0.0,0.0,100,0.00,,,0.00,WUHU216DAVISWMX,2013-07-14 04:49:00,
2013-07-14 00:54:00,70.8,70.8,30.35,SW,224,0.0,0.0,100,0.00,,,0.00,WUHU216DAVISWMX,2013-07-14 04:54:00,
2013-07-14 00:59:00,70.7,70.7,30.35,SW,224,0.0,0.0,100,0.00,,,0.00,WUHU216DAVISWMX,2013-07-14 04:59:00,
2013-07-14 01:04:00,70.8,70.8,30.34,SW,225,0.0,0.0,100,0.00,,,0.00,WUHU216DAVISWMX,2013-07-14 05:04:00,
2013-07-14 01:09:00,70.8,70.8,30.34,SW,224,0.0,0.0,100,0.00,,,0.00,WUHU216DAVISWMX,2013-07-14 05:09:00,
2013-07-14 01:14:00,70.5,70.5,30.34,SW,224,0.0,0.0,100,0.00,,,0.00,WUHU216DAVISWMX,2013-07-14 05:14:00,
2013-07-14 01:19:00,70.5,70.5,30.34,SW,224,0.0,0.0,100,0.00,,,0.00,WUHU216DAVISWMX,2013-07-14 05:19:00,
2013-07-14 01:24:00,70.5,70.5,30.34,SW,224,0.0,0.0,100,0.00,,,0.00,WUHU216DAVISWMX,2013-07-14 05:24:00,
2013-07-14 01:29:00,70.6,70.6,30.34,SW,224,0.0,0.0,100,0.00,,,0.00,WUHU216DAVISWMX,2013-07-14 05:29:00,
2013-07-14 01:34:00,70.6,70.6,30.34,SW,224,0.0,0.0,100,0.00,,,0.00,WUHU216DAVISWMX,2013-07-14 05:34:00,
2013-07-14 01:39:00,70.7,70.7,30.34,SW,224,0.0,0.0,100,0.00,,,0.00,WUHU216DAVISWMX,2013-07-14 05:39:00,
2013-07-14 01:44:00,70.6,70.6,30.34,SW,224,0.0,0.0,100,0.00,,,0.00,WUHU216DAVISWMX,2013-07-14 05:44:00,
2013-07-14 01:50:00,70.7,70.7,30.34,SW,224,0.0,0.0,100,0.00,,,0.00,WUHU216DAVISWMX,2013-07-14 05:50:00,
2013-07-14 01:55:00,70.8,70.8,30.34,SW,224,0.0,0.0,100,0.00,,,0.00,WUHU216DAVISWMX,2013-07-14 05:55:00,
2013-07-14 02:00:00,70.8,70.8,30.34,SW,224,0.0,0.0,100,0.00,,,0.00,WUHU216DAVISWMX,2013-07-14 06:00:00,
2013-07-14 02:05:00,70.6,70.6,30.34,SW,224,0.0,0.0,100,0.00,,,0.00,WUHU216DAVISWMX,2013-07-14 06:05:00,
2013-07-14 02:10:00,70.4,70.4,30.34,SW,224,0.0,0.0,100,0.00,,,0.00,WUHU216DAVISWMX,2013-07-14 06:10:00,
2013-07-14 02:15:00,70.7,70.7,30.34,SW,225,0.0,0.0,100,0.00,,,0.00,WUHU216DAVISWMX,2013-07-14 06:15:00,
2013-07-14 02:20:00,70.5,70.5,30.34,SW,224,0.0,0.0,100,0.00,,,0.00,WUHU216DAVISWMX,2013-07-14 06:20:00,
2013-07-14 02:25:00,70.4,70.4,30.34,SW,224,0.0,0.0,100,0.00,,,0.00,WUHU216DAVISWMX,2013-07-14 06:25:00,
2013-07-14 02:30:00,70.5,70.5,30.34,SW,224,0.0,0.0,100,0.00,,,0.00,WUHU216DAVISWMX,2013-07-14 06:30:00,
2013-07-14 02:35:00,70.5,70.5,30.34,SW,224,0.0,0.0,100,0.00,,,0.00,WUHU216DAVISWMX,2013-07-14 06:35:00,
2013-07-14 02:40:00,70.8,70.8,30.34,SW,224,0.0,0.0,100,0.00,,,0.00,WUHU216DAVISWMX,2013-07-14 06:40:00,
2013-07-14 02:45:00,70.8,70.8,30.34,SW,224,0.0,0.0,100,0.00,,,0.00,WUHU216DAVISWMX,2013-07-14 06:45:00,
2013-07-14 02:50:00,70.8,70.8,30.33,SW,224,0.0,0.0,100,0.00,,,0.00,WUHU216DAVISWMX,2013-07-14 06:50:00,
2013-07-14 02:55:00,70.8,70.8,30.33,SW,224,0.0,0.0,100,0.00,,,0.00,WUHU216DAVISWMX,2013-07-14 06:55:00,
2013-07-14 03:00:00,70.6,70.6,30.33,SW,224,0.0,0.0,100,0.00,,,0.00,WUHU216DAVISWMX,2013-07-14 07:00:00,
2013-07-14 03:05:00,70.6,70.6,30.33,SW,224,0.0,0.0,100,0.00,,,0.00,WUHU216DAVISWMX,2013-07-14 07:05:00,
2013-07-14 03:10:00,70.4,70.4,30.33,SW,224,0.0,0.0,100,0.00,,,0.00,WUHU216DAVISWMX,2013-07-14 07:10:00,
2013-07-14 03:15:00,70.5,70.5,30.33,SW,224,0.0,0.0,100,0.00,,,0.00,WUHU216DAVISWMX,2013-07-14 07:15:00,
2013-07-14 03:20:00,70.2,70.2,30.33,SW,224,0.0,0.0,100,0.00,,,0.00,WUHU216DAVISWMX,2013-07-14 07:20:00,
2013-07-14 03:25:00,70.3,70.3,30.34,SW,224,0.0,0.0,100,0.00,,,0.00,WUHU216DAVISWMX,2013-07-14 07:25:00,
2013-07-14 03:30:00,70.4,70.4,30.34,SW,224,0.0,0.0,100,0.00,,,0.00,WUHU216DAVISWMX,2013-07-14 07:30:00,
2013-07-14 03:35:00,70.4,70.4,30.34,SW,224,0.0,0.0,100,0.00,,,0.00,WUHU216DAVISWMX,2013-07-14 07:35:00,
2013-07-14 03:40:00,70.3,70.3,30.34,SW,224,0.0,0.0,100,0.00,,,0.00,WUHU216DAVISWMX,2013-07-14 07:40:00,
2013-07-14 03:45:00,70.3,70.3,30.34,SW,224,0.0,0.0,100,0.00,,,0.00,WUHU216DAVISWMX,2013-07-14 07:45:00,
2013-07-14 03:50:00,69.9,69.9,30.34,SW,224,0.0,0.0,100,0.00,,,0.00,WUHU216DAVISWMX,2013-07-14 07:50:00,
2013-07-14 03:55:00,69.8,69.8,30.33,SW,224,0.0,0.0,100,0.00,,,0.00,WUHU216DAVISWMX,2013-07-14 07:55:00,
2013-07-14 04:00:00,69.7,69.7,30.33,SW,224,0.0,0.0,100,0.00,,,0.00,WUHU216DAVISWMX,2013-07-14 08:00:00,
2013-07-14 04:05:00,70.0,70.0,30.33,SW,224,0.0,0.0,100,0.00,,,0.00,WUHU216DAVISWMX,2013-07-14 08:05:00,
2013-07-14 04:10:00,69.7,69.7,30.33,SW,224,0.0,0.0,100,0.00,,,0.00,WUHU216DAVISWMX,2013-07-14 08:10:00,
2013-07-14 04:15:00,69.9,69.9,30.33,SW,224,0.0,0.0,100,0.00,,,0.00,WUHU216DAVISWMX,2013-07-14 08:15:00,
2013-07-14 04:20:00,69.8,69.8,30.33,SW,224,0.0,0.0,100,0.00,,,0.00,WUHU216DAVISWMX,2013-07-14 08:20:00,
2013-07-14 04:25:00,69.5,69.5,30.33,SW,224,0.0,0.0,100,0.00,,,0.00,WUHU216DAVISWMX,2013-07-14 08:25:00,
2013-07-14 04:30:00,69.6,69.6,30.33,SW,224,0.0,0.0,100,0.00,,,0.00,WUHU216DAVISWMX,2013-07-14 08:30:00,
2013-07-14 04:35:00,69.3,69.3,30.33,SW,224,0.0,0.0,100,0.00,,,0.00,WUHU216DAVISWMX,2013-07-14 08:35:00,
2013-07-14 04:40:00,69.5,69.5,30.33,SW,224,0.0,0.0,100,0.00,,,0.00,WUHU216DAVISWMX,2013-07-14 08:40:00,
2013-07-14 04:45:00,69.1,69.1,30.33,SW,224,0.0,0.0,100,0.00,,,0.00,WUHU216DAVISWMX,2013-07-14 08:45:00,
2013-07-14 04:50:00,69.4,69.4,30.33,SW,224,0.0,0.0,100,0.00,,,0.00,WUHU216DAVISWMX,2013-07-14 08:50:00,
2013-07-14 04:55:00,69.3,69.3,30.33,SW,224,0.0,0.0,100,0.00,,,0.00,WUHU216DAVISWMX,2013-07-14 08:55:00,
2013-07-14 05:00:00,68.9,68.9,30.33,SW,224,0.0,0.0,100,0.00,,,0.00,WUHU216DAVISWMX,2013-07-14 09:00:00,
2013-07-14 05:05:00,68.9,68.9,30.33,SW,224,0.0,0.0,100,0.00,,,0.00,WUHU216DAVISWMX,2013-07-14 09:05:00,
2013-07-14 05:10:00,68.8,68.8,30.34,SW,224,0.0,0.0,100,0.00,,,0.00,WUHU216DAVISWMX,2013-07-14 09:10:00,
2013-07-14 05:15:00,69.0,69.0,30.34,SW,224,0.0,0.0,100,0.00,,,0.00,WUHU216DAVISWMX,2013-07-14 09:15:00,
2013-07-14 05:20:00,68.8,68.8,30.34,SW,224,0.0,0.0,100,0.00,,,0.00,WUHU216DAVISWMX,2013-07-14 09:20:00,
2013-07-14 05:25:00,69.0,69.0,30.34,SW,224,0.0,0.0,100,0.00,,,0.00,WUHU216DAVISWMX,2013-07-14 09:25:00,
2013-07-14 05:30:00,68.9,68.9,30.34,SW,224,0.0,0.0,100,0.00,,,0.00,WUHU216DAVISWMX,2013-07-14 09:30:00,
2013-07-14 05:35:00,68.5,68.5,30.34,SW,224,0.0,0.0,100,0.00,,,0.00,WUHU216DAVISWMX,2013-07-14 09:35:00,
2013-07-14 05:40:00,68.8,68.8,30.34,SW,224,0.0,0.0,100,0.00,,,0.00,WUHU216DAVISWMX,2013-07-14 09:40:00,
2013-07-14 05:45:00,68.5,68.5,30.34,SW,224,0.0,0.0,100,0.00,,,0.00,WUHU216DAVISWMX,2013-07-14 09:45:00,
2013-07-14 05:50:00,68.6,68.6,30.34,SW,224,0.0,0.0,100,0.00,,,0.00,WUHU216DAVISWMX,2013-07-14 09:50:00,
2013-07-14 05:55:00,68.3,68.3,30.34,SW,224,0.0,0.0,100,0.00,,,0.00,WUHU216DAVISWMX,2013-07-14 09:55:00,
2013-07-14 06:00:00,68.3,68.3,30.34,SW,224,0.0,0.0,100,0.00,,,0.00,WUHU216DAVISWMX,2013-07-14 10:00:00,
2013-07-14 06:05:00,68.2,68.2,30.34,SW,224,0.0,0.0,100,0.00,,,0.00,WUHU216DAVISWMX,2013-07-14 10:05:00,
2013-07-14 06:10:00,68.2,68.2,30.34,SW,224,0.0,0.0,100,0.00,,,0.00,WUHU216DAVISWMX,2013-07-14 10:10:00,
2013-07-14 06:15:00,68.4,68.4,30.34,SW,224,0.0,0.0,100,0.00,,,0.00,WUHU216DAVISWMX,2013-07-14 10:15:00,
2013-07-14 06:20:00,68.6,68.6,30.34,SW,224,0.0,0.0,100,0.00,,,0.00,WUHU216DAVISWMX,2013-07-14 10:20:00,
2013-07-14 06:25:00,68.4,68.4,30.34,SW,224,0.0,0.0,100,0.00,,,0.00,WUHU216DAVISWMX,2013-07-14 10:25:00,
2013-07-14 06:30:00,68.7,68.7,30.34,SW,224,0.0,0.0,100,0.00,,,0.00,WUHU216DAVISWMX,2013-07-14 10:30:00,
2013-07-14 06:35:00,68.5,68.5,30.34,SW,224,0.0,0.0,100,0.00,,,0.00,WUHU216DAVISWMX,2013-07-14 10:35:00,
2013-07-14 06:40:00,68.6,68.6,30.34,SW,224,0.0,0.0,100,0.00,,,0.00,WUHU216DAVISWMX,2013-07-14 10:40:00,
2013-07-14 06:45:00,68.6,68.6,30.34,SW,224,0.0,0.0,100,0.00,,,0.00,WUHU216DAVISWMX,2013-07-14 10:45:00,
2013-07-14 06:50:00,68.8,68.8,30.34,SW,224,0.0,0.0,100,0.00,,,0.00,WUHU216DAVISWMX,2013-07-14 10:50:00,
2013-07-14 06:55:00,68.8,68.8,30.34,SW,224,0.0,0.0,100,0.00,,,0.00,WUHU216DAVISWMX,2013-07-14 10:55:00,
2013-07-14 07:00:00,69.0,69.0,30.34,SW,224,0.0,0.0,100,0.00,,,0.00,WUHU216DAVISWMX,2013-07-14 11:00:00,
2013-07-14 07:05:00,69.1,69.1,30.34,SW,224,0.0,0.0,100,0.00,,,0.00,WUHU216DAVISWMX,2013-07-14 11:05:00,
2013-07-14 07:10:00,69.6,69.6,30.35,SW,224,0.0,0.0,100,0.00,,,0.00,WUHU216DAVISWMX,2013-07-14 11:10:00,
2013-07-14 07:15:00,69.8,69.8,30.34,SW,224,0.0,0.0,100,0.00,,,0.00,WUHU216DAVISWMX,2013-07-14 11:15:00,
2013-07-14 07:20:00,69.6,69.6,30.35,SW,224,0.0,0.0,100,0.00,,,0.00,WUHU216DAVISWMX,2013-07-14 11:20:00,
2013-07-14 07:25:00,70.2,70.2,30.34,SW,224,0.0,0.0,100,0.00,,,0.00,WUHU216DAVISWMX,2013-07-14 11:25:00,
2013-07-14 07:30:00,70.5,70.5,30.34,SW,224,0.0,0.0,100,0.00,,,0.00,WUHU216DAVISWMX,2013-07-14 11:30:00,
2013-07-14 07:35:00,70.7,70.7,30.35,SW,224,0.0,0.0,100,0.00,,,0.00,WUHU216DAVISWMX,2013-07-14 11:35:00,
2013-07-14 07:40:00,70.9,70.9,30.34,SW,224,0.0,0.0,100,0.00,,,0.00,WUHU216DAVISWMX,2013-07-14 11:40:00,
2013-07-14 07:45:00,71.1,71.1,30.34,SW,224,0.0,0.0,100,0.00,,,0.00,WUHU216DAVISWMX,2013-07-14 11:45:00,
2013-07-14 07:50:00,71.6,71.6,30.34,SW,224,0.0,0.0,100,0.00,,,0.00,WUHU216DAVISWMX,2013-07-14 11:50:00,
2013-07-14 07:55:00,72.3,72.3,30.34,SW,224,0.0,0.0,100,0.00,,,0.00,WUHU216DAVISWMX,2013-07-14 11:55:00,
2013-07-14 08:00:00,72.1,72.1,30.34,SW,224,0.0,0.0,100,0.00,,,0.00,WUHU216DAVISWMX,2013-07-14 12:00:00,
2013-07-14 08:05:00,72.7,72.7,30.35,SW,224,0.0,0.0,100,0.00,,,0.00,WUHU216DAVISWMX,2013-07-14 12:05:00,
2013-07-14 08:10:00,73.0,73.0,30.34,SW,224,0.0,0.0,100,0.00,,,0.00,WUHU216DAVISWMX,2013-07-14 12:10:00,
2013-07-14 08:15:00,73.6,73.6,30.34,SW,218,0.0,0.0,100,0.00,,,0.00,WUHU216DAVISWMX,2013-07-14 12:15:00,
2013-07-14 08:20:00,73.9,73.9,30.34,WNW,297,0.0,0.0,100,0.00,,,0.00,WUHU216DAVISWMX,2013-07-14 12:20:00,
2013-07-14 08:25:00,74.3,74.3,30.34,WNW,296,0.0,0.0,100,0.00,,,0.00,WUHU216DAVISWMX,2013-07-14 12:25:00,
2013-07-14 08:30:00,74.6,74.6,30.34,WNW,297,0.0,0.0,100,0.00,,,0.00,WUHU216DAVISWMX,2013-07-14 12:30:00,
2013-07-14 08:35:00,75.2,75.2,30.34,WNW,296,0.0,0.0,100,0.00,,,0.00,WUHU216DAVISWMX,2013-07-14 12:35:00,
2013-07-14 08:40:00,76.1,75.8,30.34,NW,317,0.0,0.0,99,0.00,,,0.00,WUHU216DAVISWMX,2013-07-14 12:40:00,
2013-07-14 08:45:00,77.0,76.1,30.34,NW,317,0.0,0.0,97,0.00,,,0.00,WUHU216DAVISWMX,2013-07-14 12:45:00,
2013-07-14 08:50:00,78.2,76.6,30.34,NW,317,0.0,0.0,95,0.00,,,0.00,WUHU216DAVISWMX,2013-07-14 12:50:00,
2013-07-14 08:55:00,79.1,76.6,30.33,NW,318,0.0,7.0,92,0.00,,,0.00,WUHU216DAVISWMX,2013-07-14 12:55:00,
2013-07-14 09:00:00,80.1,76.9,30.33,WSW,247,1.0,7.0,90,0.00,,,0.00,WUHU216DAVISWMX,2013-07-14 13:00:00,
2013-07-14 09:05:00,81.0,77.5,30.33,NW,323,2.0,3.0,89,0.00,,,0.00,WUHU216DAVISWMX,2013-07-14 13:05:00,
2013-07-14 09:10:00,81.9,78.0,30.33,NW,323,0.0,3.0,88,0.00,,,0.00,WUHU216DAVISWMX,2013-07-14 13:10:00,
2013-07-14 09:15:00,82.6,77.0,30.33,NW,323,0.0,3.0,83,0.00,,,0.00,WUHU216DAVISWMX,2013-07-14 13:15:00,
2013-07-14 09:20:00,83.4,77.8,30.33,WNW,301,3.0,4.0,83,0.00,,,0.00,WUHU216DAVISWMX,2013-07-14 13:20:00,
2013-07-14 09:25:00,83.9,77.6,30.33,NW,307,3.0,4.0,81,0.00,,,0.00,WUHU216DAVISWMX,2013-07-14 13:25:00,
2013-07-14 09:30:00,84.7,78.3,30.32,NW,308,1.0,3.0,81,0.00,,,0.00,WUHU216DAVISWMX,2013-07-14 13:30:00,
2013-07-14 09:35:00,85.1,78.4,30.33,NW,317,0.0,3.0,80,0.00,,,0.00,WUHU216DAVISWMX,2013-07-14 13:35:00,
2013-07-14 09:40:00,85.7,79.0,30.32,NW,317,1.0,3.0,80,0.00,,,0.00,WUHU216DAVISWMX,2013-07-14 13:40:00,
2013-07-14 09:45:00,86.2,79.1,30.32,NW,317,0.0,2.0,79,0.00,,,0.00,WUHU216DAVISWMX,2013-07-14 13:45:00,
2013-07-14 09:50:00,86.9,79.4,30.32,NW,316,1.0,2.0,78,0.00,,,0.00,WUHU216DAVISWMX,2013-07-14 13:50:00,
2013-07-14 09:55:00,87.2,79.3,30.32,NW,316,0.0,2.0,77,0.00,,,0.00,WUHU216DAVISWMX,2013-07-14 13:55:00,
2013-07-14 10:00:00,88.0,79.7,30.32,NW,316,0.0,2.0,76,0.00,,,0.00,WUHU216DAVISWMX,2013-07-14 14:00:00,
2013-07-14 10:05:00,88.2,79.5,30.32,NW,313,2.0,2.0,75,0.00,,,0.00,WUHU216DAVISWMX,2013-07-14 14:05:00,
2013-07-14 10:10:00,88.2,80.3,30.32,NW,317,0.0,8.0,77,0.00,,,0.00,WUHU216DAVISWMX,2013-07-14 14:10:00,
2013-07-14 10:15:00,89.0,80.3,30.32,NW,317,0.0,8.0,75,0.00,,,0.00,WUHU216DAVISWMX,2013-07-14 14:15:00,
2013-07-14 10:20:00,88.9,79.0,30.32,NW,317,1.0,3.0,72,0.00,,,0.00,WUHU216DAVISWMX,2013-07-14 14:20:00,
2013-07-14 10:25:00,87.7,79.0,30.32,NW,317,0.0,3.0,75,0.00,,,0.00,WUHU216DAVISWMX,2013-07-14 14:25:00,
2013-07-14 10:30:00,87.7,79.4,30.32,NW,317,1.0,2.0,76,0.00,,,0.00,WUHU216DAVISWMX,2013-07-14 14:30:00,
2013-07-14 10:35:00,88.3,79.6,30.32,WNW,291,1.0,3.0,75,0.00,,,0.00,WUHU216DAVISWMX,2013-07-14 14:35:00,
2013-07-14 10:40:00,88.8,78.9,30.32,NW,304,1.0,3.0,72,0.00,,,0.00,WUHU216DAVISWMX,2013-07-14 14:40:00,
2013-07-14 10:45:00,89.0,79.1,30.32,WNW,295,2.0,2.0,72,0.00,,,0.00,WUHU216DAVISWMX,2013-07-14 14:45:00,
2013-07-14 10:50:00,88.5,78.6,30.32,NW,304,0.0,3.0,72,0.00,,,0.00,WUHU216DAVISWMX,2013-07-14 14:50:00,
2013-07-14 10:55:00,88.3,79.6,30.32,WNW,302,0.0,3.0,75,0.00,,,0.00,WUHU216DAVISWMX,2013-07-14 14:55:00,
2013-07-14 11:00:00,89.2,80.1,30.32,WNW,295,0.0,2.0,74,0.00,,,0.00,WUHU216DAVISWMX,2013-07-14 15:00:00,
2013-07-14 11:05:00,89.6,79.6,30.32,WNW,295,1.0,2.0,72,0.00,,,0.00,WUHU216DAVISWMX,2013-07-14 15:05:00,
2013-07-14 11:10:00,89.7,78.5,30.32,NNW,331,1.0,3.0,69,0.00,,,0.00,WUHU216DAVISWMX,2013-07-14 15:10:00,
2013-07-14 11:15:00,88.7,78.3,30.32,WNW,288,2.0,4.0,71,0.00,,,0.00,WUHU216DAVISWMX,2013-07-14 15:15:00,
2013-07-14 11:20:00,88.6,78.7,30.32,NW,320,0.0,4.0,72,0.00,,,0.00,WUHU216DAVISWMX,2013-07-14 15:20:00,
2013-07-14 11:25:00,89.0,78.6,30.32,NW,322,2.0,5.0,71,0.00,,,0.00,WUHU216DAVISWMX,2013-07-14 15:25:00,
2013-07-14 11:30:00,89.4,77.7,30.31,NW,322,0.0,5.0,68,0.00,,,0.00,WUHU216DAVISWMX,2013-07-14 15:30:00,
2013-07-14 11:35:00,89.2,77.5,30.31,NNW,338,2.0,3.0,68,0.00,,,0.00,WUHU216DAVISWMX,2013-07-14 15:35:00,
2013-07-14 11:40:00,88.7,78.3,30.31,NNW,333,1.0,3.0,71,0.00,,,0.00,WUHU216DAVISWMX,2013-07-14 15:40:00,
2013-07-14 11:47:00,88.4,78.1,30.31,WNW,292,0.0,6.0,71,0.00,,,0.00,WUHU216DAVISWMX,2013-07-14 15:47:00,
2013-07-14 11:56:00,87.7,77.8,30.31,NNW,330,1.0,3.0,72,0.00,,,0.00,WUHU216DAVISWMX,2013-07-14 15:56:00,
2013-07-14 12:01:00,87.4,77.9,30.31,NNW,330,0.0,2.0,73,0.00,,,0.00,WUHU216DAVISWMX,2013-07-14 16:01:00,
2013-07-14 12:06:00,88.0,78.5,30.31,NNW,330,1.0,2.0,73,0.00,,,0.00,WUHU216DAVISWMX,2013-07-14 16:06:00,
2013-07-14 12:11:00,88.5,77.7,30.31,NW,326,0.0,3.0,70,0.00,,,0.00,WUHU216DAVISWMX,2013-07-14 16:11:00,
2013-07-14 12:16:00,88.8,78.9,30.30,North,358,1.0,3.0,72,0.00,,,0.00,WUHU216DAVISWMX,2013-07-14 16:16:00,
2013-07-14 12:21:00,88.9,77.3,30.30,NNW,327,0.0,3.0,68,0.00,,,0.00,WUHU216DAVISWMX,2013-07-14 16:21:00,
2013-07-14 12:26:00,88.9,77.7,30.30,North,0,0.0,3.0,69,0.00,,,0.00,WUHU216DAVISWMX,2013-07-14 16:26:00,
2013-07-14 12:31:00,89.2,78.4,30.30,North,0,1.0,3.0,70,0.00,,,0.00,WUHU216DAVISWMX,2013-07-14 16:31:00,
2013-07-14 12:36:00,88.7,77.5,30.30,NW,313,0.0,3.0,69,0.00,,,0.00,WUHU216DAVISWMX,2013-07-14 16:36:00,
2013-07-14 12:41:00,88.4,77.2,30.30,NW,311,1.0,3.0,69,0.00,,,0.00,WUHU216DAVISWMX,2013-07-14 16:41:00,
2013-07-14 12:46:00,88.3,77.1,30.30,NNW,327,0.0,3.0,69,0.00,,,0.00,WUHU216DAVISWMX,2013-07-14 16:46:00,
2013-07-14 12:51:00,87.7,77.4,30.30,NNW,328,0.0,3.0,71,0.00,,,0.00,WUHU216DAVISWMX,2013-07-14 16:51:00,
2013-07-14 12:56:00,87.1,77.2,30.30,NNW,328,0.0,2.0,72,0.00,,,0.00,WUHU216DAVISWMX,2013-07-14 16:56:00,
2013-07-14 13:01:00,86.4,76.5,30.30,NNW,328,0.0,1.0,72,0.00,,,0.00,WUHU216DAVISWMX,2013-07-14 17:01:00,
2013-07-14 13:06:00,86.3,77.3,30.30,NNW,328,0.0,1.0,74,0.00,,,0.00,WUHU216DAVISWMX,2013-07-14 17:06:00,
2013-07-14 13:11:00,86.3,76.9,30.29,NNW,328,0.0,0.0,73,0.00,,,0.00,WUHU216DAVISWMX,2013-07-14 17:11:00,
2013-07-14 13:16:00,86.5,77.4,30.29,NNW,327,0.0,0.0,74,0.00,,,0.00,WUHU216DAVISWMX,2013-07-14 17:16:00,
2013-07-14 13:21:00,86.6,77.5,30.29,NNW,328,1.0,1.0,74,0.00,,,0.00,WUHU216DAVISWMX,2013-07-14 17:21:00,
2013-07-14 13:26:00,86.9,77.4,30.29,NNW,328,1.0,1.0,73,0.00,,,0.00,WUHU216DAVISWMX,2013-07-14 17:26:00,
2013-07-14 13:31:00,87.1,78.0,30.29,NNW,328,0.0,1.0,74,0.00,,,0.00,WUHU216DAVISWMX,2013-07-14 17:31:00,
2013-07-14 13:36:00,87.6,77.7,30.29,NNW,328,0.0,2.0,72,0.00,,,0.00,WUHU216DAVISWMX,2013-07-14 17:36:00,
2013-07-14 13:41:00,88.0,77.7,30.29,NNW,328,0.0,2.0,71,0.00,,,0.00,WUHU216DAVISWMX,2013-07-14 17:41:00,
2013-07-14 13:46:00,88.2,77.4,30.29,NW,325,0.0,2.0,70,0.00,,,0.00,WUHU216DAVISWMX,2013-07-14 17:46:00,
2013-07-14 13:51:00,88.3,78.8,30.29,NW,325,0.0,2.0,73,0.00,,,0.00,WUHU216DAVISWMX,2013-07-14 17:51:00,
2013-07-14 13:56:00,88.6,78.3,30.28,SW,225,0.0,2.0,71,0.00,,,0.00,WUHU216DAVISWMX,2013-07-14 17:56:00,
2013-07-14 14:01:00,88.8,77.6,30.28,SSW,206,0.0,2.0,69,0.00,,,0.00,WUHU216DAVISWMX,2013-07-14 18:01:00,
2013-07-14 14:06:00,88.6,78.7,30.28,SSW,207,0.0,2.0,72,0.00,,,0.00,WUHU216DAVISWMX,2013-07-14 18:06:00,
2013-07-14 14:11:00,88.7,77.5,30.28,SSW,206,1.0,1.0,69,0.00,,,0.00,WUHU216DAVISWMX,2013-07-14 18:11:00,
2013-07-14 14:16:00,88.5,77.3,30.28,SSW,207,0.0,2.0,69,0.00,,,0.00,WUHU216DAVISWMX,2013-07-14 18:16:00,
2013-07-14 14:21:00,88.3,78.0,30.28,SSW,206,1.0,2.0,71,0.00,,,0.00,WUHU216DAVISWMX,2013-07-14 18:21:00,
2013-07-14 14:26:00,88.7,77.5,30.28,SSW,206,0.0,2.0,69,0.00,,,0.00,WUHU216DAVISWMX,2013-07-14 18:26:00,
2013-07-14 14:31:00,89.0,77.8,30.28,North,0,1.0,2.0,69,0.00,,,0.00,WUHU216DAVISWMX,2013-07-14 18:31:00,
2013-07-14 14:36:00,89.3,79.3,30.27,ENE,69,0.0,2.0,72,0.00,,,0.00,WUHU216DAVISWMX,2013-07-14 18:36:00,
2013-07-14 14:41:00,89.3,78.9,30.28,ENE,64,1.0,3.0,71,0.00,,,0.00,WUHU216DAVISWMX,2013-07-14 18:41:00,
2013-07-14 14:46:00,89.3,78.1,30.28,ENE,58,1.0,3.0,69,0.00,,,0.00,WUHU216DAVISWMX,2013-07-14 18:46:00,
2013-07-14 14:51:00,88.9,77.3,30.28,NNE,26,0.0,3.0,68,0.00,,,0.00,WUHU216DAVISWMX,2013-07-14 18:51:00,
2013-07-14 14:56:00,88.3,77.1,30.27,NNE,25,1.0,2.0,69,0.00,,,0.00,WUHU216DAVISWMX,2013-07-14 18:56:00,
2013-07-14 15:01:00,87.6,76.9,30.27,NNE,26,0.0,2.0,70,0.00,,,0.00,WUHU216DAVISWMX,2013-07-14 19:01:00,
2013-07-14 15:06:00,87.4,77.5,30.27,NNE,26,0.0,1.0,72,0.00,,,0.00,WUHU216DAVISWMX,2013-07-14 19:06:00,
2013-07-14 15:11:00,87.2,76.9,30.27,NNE,26,0.0,0.0,71,0.00,,,0.00,WUHU216DAVISWMX,2013-07-14 19:11:00,
2013-07-14 15:16:00,87.2,78.1,30.27,NNE,26,0.0,0.0,74,0.00,,,0.00,WUHU216DAVISWMX,2013-07-14 19:16:00,
2013-07-14 15:21:00,87.2,78.1,30.27,NNE,26,0.0,0.0,74,0.00,,,0.00,WUHU216DAVISWMX,2013-07-14 19:21:00,
2013-07-14 15:26:00,87.2,78.5,30.27,NNE,26,0.0,0.0,75,0.00,,,0.00,WUHU216DAVISWMX,2013-07-14 19:26:00,
2013-07-14 15:31:00,87.1,78.0,30.27,NNE,26,0.0,0.0,74,0.00,,,0.00,WUHU216DAVISWMX,2013-07-14 19:31:00,
2013-07-14 15:36:00,86.9,78.6,30.27,NNE,26,0.0,0.0,76,0.00,,,0.00,WUHU216DAVISWMX,2013-07-14 19:36:00,
2013-07-14 15:41:00,86.6,77.9,30.27,NNE,26,0.0,0.0,75,0.00,,,0.00,WUHU216DAVISWMX,2013-07-14 19:41:00,
2013-07-14 15:51:00,85.7,78.6,30.27,NNE,26,0.0,0.0,79,0.00,,,0.00,WUHU216DAVISWMX,2013-07-14 19:51:00,
2013-07-14 15:56:00,85.5,79.1,30.27,NNE,26,0.0,0.0,81,0.00,,,0.00,WUHU216DAVISWMX,2013-07-14 19:56:00,
2013-07-14 16:01:00,85.6,78.5,30.27,NNE,26,0.0,0.0,79,0.00,,,0.00,WUHU216DAVISWMX,2013-07-14 20:01:00,
2013-07-14 16:06:00,85.6,79.2,30.27,NNE,26,0.0,0.0,81,0.00,,,0.00,WUHU216DAVISWMX,2013-07-14 20:06:00,
2013-07-14 16:11:00,85.8,79.0,30.27,NNE,26,0.0,0.0,80,0.00,,,0.00,WUHU216DAVISWMX,2013-07-14 20:11:00,
2013-07-14 16:16:00,86.3,79.5,30.27,NNE,26,1.0,1.0,80,0.00,,,0.00,WUHU216DAVISWMX,2013-07-14 20:16:00,
2013-07-14 16:21:00,86.5,79.0,30.27,NNE,26,0.0,2.0,78,0.00,,,0.00,WUHU216DAVISWMX,2013-07-14 20:21:00,
2013-07-14 16:26:00,86.3,78.4,30.27,NNE,25,0.0,2.0,77,0.00,,,0.00,WUHU216DAVISWMX,2013-07-14 20:26:00,
2013-07-14 16:31:00,86.0,78.1,30.26,NNE,26,0.0,1.0,77,0.00,,,0.00,WUHU216DAVISWMX,2013-07-14 20:31:00,
2013-07-14 16:36:00,85.8,78.7,30.26,NNE,25,0.0,1.0,79,0.00,,,0.00,WUHU216DAVISWMX,2013-07-14 20:36:00,
2013-07-14 16:41:00,85.8,78.3,30.26,NNE,26,0.0,1.0,78,0.00,,,0.00,WUHU216DAVISWMX,2013-07-14 20:41:00,
2013-07-14 16:46:00,85.8,78.3,30.26,NNE,26,0.0,0.0,78,0.00,,,0.00,WUHU216DAVISWMX,2013-07-14 20:46:00,
2013-07-14 16:51:00,86.1,77.8,30.26,NNE,26,1.0,1.0,76,0.00,,,0.00,WUHU216DAVISWMX,2013-07-14 20:51:00,
2013-07-14 16:56:00,86.3,78.0,30.26,NNE,26,1.0,2.0,76,0.00,,,0.00,WUHU216DAVISWMX,2013-07-14 20:56:00,
2013-07-14 17:01:00,86.1,78.2,30.26,NNE,26,0.0,2.0,77,0.00,,,0.00,WUHU216DAVISWMX,2013-07-14 21:01:00,
2013-07-14 17:06:00,86.0,78.5,30.26,NNE,26,0.0,1.0,78,0.00,,,0.00,WUHU216DAVISWMX,2013-07-14 21:06:00,
2013-07-14 17:11:00,85.8,78.3,30.26,NNE,26,0.0,0.0,78,0.00,,,0.00,WUHU216DAVISWMX,2013-07-14 21:11:00,
2013-07-14 17:16:00,85.7,78.6,30.26,NNE,26,0.0,0.0,79,0.00,,,0.00,WUHU216DAVISWMX,2013-07-14 21:16:00,
2013-07-14 17:21:00,85.7,78.6,30.26,NNE,26,0.0,0.0,79,0.00,,,0.00,WUHU216DAVISWMX,2013-07-14 21:21:00,
2013-07-14 17:26:00,85.6,79.2,30.26,NNE,25,0.0,0.0,81,0.00,,,0.00,WUHU216DAVISWMX,2013-07-14 21:26:00,
2013-07-14 17:31:00,85.4,78.7,30.26,NNE,25,0.0,0.0,80,0.00,,,0.00,WUHU216DAVISWMX,2013-07-14 21:31:00,
2013-07-14 17:36:00,85.2,78.8,30.26,NNE,26,0.0,0.0,81,0.00,,,0.00,WUHU216DAVISWMX,2013-07-14 21:36:00,
2013-07-14 17:41:00,85.2,79.5,30.26,NNE,26,0.0,0.0,83,0.00,,,0.00,WUHU216DAVISWMX,2013-07-14 21:41:00,
2013-07-14 17:47:00,85.0,79.3,30.26,NNE,26,0.0,0.0,83,0.00,,,0.00,WUHU216DAVISWMX,2013-07-14 21:47:00,
2013-07-14 17:52:00,84.9,79.2,30.26,NNE,26,0.0,0.0,83,0.00,,,0.00,WUHU216DAVISWMX,2013-07-14 21:52:00,
2013-07-14 17:57:00,84.9,79.6,30.26,NNE,26,0.0,0.0,84,0.00,,,0.00,WUHU216DAVISWMX,2013-07-14 21:57:00,
2013-07-14 18:02:00,84.8,79.1,30.25,NNE,26,0.0,0.0,83,0.00,,,0.00,WUHU216DAVISWMX,2013-07-14 22:02:00,
2013-07-14 18:07:00,84.8,79.1,30.25,NNE,26,0.0,0.0,83,0.00,,,0.00,WUHU216DAVISWMX,2013-07-14 22:07:00,
2013-07-14 18:12:00,84.8,79.5,30.25,NNE,26,0.0,0.0,84,0.00,,,0.00,WUHU216DAVISWMX,2013-07-14 22:12:00,
2013-07-14 18:17:00,84.7,79.4,30.26,NNE,26,0.0,0.0,84,0.00,,,0.00,WUHU216DAVISWMX,2013-07-14 22:17:00,
2013-07-14 18:22:00,84.7,79.8,30.25,NNE,25,0.0,0.0,85,0.00,,,0.00,WUHU216DAVISWMX,2013-07-14 22:22:00,
2013-07-14 18:27:00,84.7,79.8,30.25,NNE,26,0.0,0.0,85,0.00,,,0.00,WUHU216DAVISWMX,2013-07-14 22:27:00,
2013-07-14 18:32:00,84.6,80.3,30.25,NNE,26,0.0,0.0,87,0.00,,,0.00,WUHU216DAVISWMX,2013-07-14 22:32:00,
2013-07-14 18:37:00,84.5,80.2,30.25,NNE,26,0.0,0.0,87,0.00,,,0.00,WUHU216DAVISWMX,2013-07-14 22:37:00,
2013-07-14 18:47:00,84.4,79.5,30.25,NNE,26,0.0,0.0,85,0.00,,,0.00,WUHU216DAVISWMX,2013-07-14 22:47:00,
2013-07-14 18:52:00,84.1,79.5,30.25,NNE,25,0.0,0.0,86,0.00,,,0.00,WUHU216DAVISWMX,2013-07-14 22:52:00,
2013-07-14 18:57:00,84.0,79.1,30.25,NNE,25,0.0,0.0,85,0.00,,,0.00,WUHU216DAVISWMX,2013-07-14 22:57:00,
2013-07-14 19:02:00,84.0,79.1,30.25,NNE,26,0.0,0.0,85,0.00,,,0.00,WUHU216DAVISWMX,2013-07-14 23:02:00,
2013-07-14 19:07:00,83.9,79.3,30.25,NNE,26,0.0,0.0,86,0.00,,,0.00,WUHU216DAVISWMX,2013-07-14 23:07:00,
2013-07-14 19:12:00,84.0,79.4,30.25,NNE,26,0.0,0.0,86,0.00,,,0.00,WUHU216DAVISWMX,2013-07-14 23:12:00,
2013-07-14 19:17:00,83.8,79.5,30.25,NNE,26,0.0,0.0,87,0.00,,,0.00,WUHU216DAVISWMX,2013-07-14 23:17:00,
2013-07-14 19:22:00,83.6,79.0,30.25,NNE,26,0.0,0.0,86,0.00,,,0.00,WUHU216DAVISWMX,2013-07-14 23:22:00,
2013-07-14 19:27:00,83.3,79.1,30.25,NNE,26,0.0,0.0,87,0.00,,,0.00,WUHU216DAVISWMX,2013-07-14 23:27:00,
2013-07-14 19:32:00,83.2,79.3,30.25,NNE,26,0.0,0.0,88,0.00,,,0.00,WUHU216DAVISWMX,2013-07-14 23:32:00,
2013-07-14 19:37:00,83.2,79.6,30.25,NNE,26,0.0,0.0,89,0.00,,,0.00,WUHU216DAVISWMX,2013-07-14 23:37:00,
2013-07-14 19:42:00,82.9,79.7,30.25,NNE,26,0.0,0.0,90,0.00,,,0.00,WUHU216DAVISWMX,2013-07-14 23:42:00,
2013-07-14 19:47:00,82.7,79.5,30.25,NNE,26,0.0,0.0,90,0.00,,,0.00,WUHU216DAVISWMX,2013-07-14 23:47:00,
2013-07-14 19:52:00,82.6,79.4,30.25,NNE,25,0.0,0.0,90,0.00,,,0.00,WUHU216DAVISWMX,2013-07-14 23:52:00,
2013-07-14 19:57:00,82.6,79.7,30.25,NNE,26,0.0,0.0,91,0.00,,,0.00,WUHU216DAVISWMX,2013-07-14 23:57:00,
2013-07-14 20:02:00,82.2,79.3,30.25,NNE,26,0.0,0.0,91,0.00,,,0.00,WUHU216DAVISWMX,2013-07-15 00:02:00,
2013-07-14 20:07:00,82.0,79.4,30.25,NNE,25,0.0,0.0,92,0.00,,,0.00,WUHU216DAVISWMX,2013-07-15 00:07:00,
2013-07-14 20:12:00,81.8,78.9,30.25,NNE,26,0.0,0.0,91,0.00,,,0.00,WUHU216DAVISWMX,2013-07-15 00:12:00,
2013-07-14 20:17:00,81.7,79.1,30.25,NNE,26,0.0,0.0,92,0.00,,,0.00,WUHU216DAVISWMX,2013-07-15 00:17:00,
2013-07-14 20:22:00,81.4,79.2,30.25,NNE,26,0.0,0.0,93,0.00,,,0.00,WUHU216DAVISWMX,2013-07-15 00:22:00,
2013-07-14 20:27:00,81.1,78.9,30.26,NNE,25,0.0,0.0,93,0.00,,,0.00,WUHU216DAVISWMX,2013-07-15 00:27:00,
2013-07-14 20:32:00,81.0,79.1,30.25,NNE,26,0.0,0.0,94,0.00,,,0.00,WUHU216DAVISWMX,2013-07-15 00:32:00,
2013-07-14 20:37:00,80.9,79.0,30.25,NNE,26,0.0,0.0,94,0.00,,,0.00,WUHU216DAVISWMX,2013-07-15 00:37:00,
2013-07-14 20:42:00,80.6,78.7,30.26,NNE,26,0.0,0.0,94,0.00,,,0.00,WUHU216DAVISWMX,2013-07-15 00:42:00,
2013-07-14 20:47:00,80.4,78.5,30.26,NNE,25,0.0,0.0,94,0.00,,,0.00,WUHU216DAVISWMX,2013-07-15 00:47:00,
2013-07-14 20:52:00,80.2,78.6,30.26,NNE,26,0.0,0.0,95,0.00,,,0.00,WUHU216DAVISWMX,2013-07-15 00:52:00,
2013-07-14 20:57:00,79.8,78.2,30.26,NNE,26,0.0,0.0,95,0.00,,,0.00,WUHU216DAVISWMX,2013-07-15 00:57:00,
2013-07-14 21:02:00,79.7,78.4,30.26,NNE,26,0.0,0.0,96,0.00,,,0.00,WUHU216DAVISWMX,2013-07-15 01:02:00,
2013-07-14 21:07:00,79.5,78.2,30.26,NNE,26,0.0,0.0,96,0.00,,,0.00,WUHU216DAVISWMX,2013-07-15 01:07:00,
2013-07-14 21:12:00,79.3,78.0,30.26,NNE,26,0.0,0.0,96,0.00,,,0.00,WUHU216DAVISWMX,2013-07-15 01:12:00,
2013-07-14 21:17:00,79.4,78.5,30.26,NNE,26,0.0,0.0,97,0.00,,,0.00,WUHU216DAVISWMX,2013-07-15 01:17:00,
2013-07-14 21:22:00,78.9,77.6,30.26,NNE,26,0.0,0.0,96,0.00,,,0.00,WUHU216DAVISWMX,2013-07-15 01:22:00,
2013-07-14 21:27:00,79.0,77.7,30.27,NNE,25,0.0,0.0,96,0.00,,,0.00,WUHU216DAVISWMX,2013-07-15 01:27:00,
2013-07-14 21:32:00,78.6,77.7,30.27,NNE,26,0.0,0.0,97,0.00,,,0.00,WUHU216DAVISWMX,2013-07-15 01:32:00,
2013-07-14 21:37:00,78.7,77.8,30.27,NNE,26,0.0,0.0,97,0.00,,,0.00,WUHU216DAVISWMX,2013-07-15 01:37:00,
2013-07-14 21:42:00,78.3,77.4,30.27,NNE,26,0.0,0.0,97,0.00,,,0.00,WUHU216DAVISWMX,2013-07-15 01:42:00,
2013-07-14 21:47:00,78.3,77.4,30.27,NNE,26,0.0,0.0,97,0.00,,,0.00,WUHU216DAVISWMX,2013-07-15 01:47:00,
2013-07-14 21:52:00,77.9,77.0,30.27,NNE,26,0.0,0.0,97,0.00,,,0.00,WUHU216DAVISWMX,2013-07-15 01:52:00,
2013-07-14 21:57:00,77.8,76.9,30.27,NNE,25,0.0,0.0,97,0.00,,,0.00,WUHU216DAVISWMX,2013-07-15 01:57:00,
2013-07-14 22:02:00,77.6,77.0,30.27,NNE,26,0.0,0.0,98,0.00,,,0.00,WUHU216DAVISWMX,2013-07-15 02:02:00,
2013-07-14 22:07:00,77.4,76.8,30.27,NNE,25,0.0,0.0,98,0.00,,,0.00,WUHU216DAVISWMX,2013-07-15 02:07:00,
2013-07-14 22:12:00,77.4,76.8,30.27,NNE,26,0.0,0.0,98,0.00,,,0.00,WUHU216DAVISWMX,2013-07-15 02:12:00,
2013-07-14 22:17:00,77.3,76.7,30.26,NNE,26,0.0,0.0,98,0.00,,,0.00,WUHU216DAVISWMX,2013-07-15 02:17:00,
2013-07-14 22:22:00,77.3,76.7,30.27,NNE,26,0.0,0.0,98,0.00,,,0.00,WUHU216DAVISWMX,2013-07-15 02:22:00,
2013-07-14 22:27:00,77.2,76.6,30.26,NNE,26,0.0,0.0,98,0.00,,,0.00,WUHU216DAVISWMX,2013-07-15 02:27:00,
2013-07-14 22:32:00,77.0,76.4,30.26,NNE,26,0.0,0.0,98,0.00,,,0.00,WUHU216DAVISWMX,2013-07-15 02:32:00,
2013-07-14 22:37:00,77.0,76.7,30.26,NNE,26,0.0,0.0,99,0.00,,,0.00,WUHU216DAVISWMX,2013-07-15 02:37:00,
2013-07-14 22:42:00,76.8,76.2,30.26,NNE,26,0.0,0.0,98,0.00,,,0.00,WUHU216DAVISWMX,2013-07-15 02:42:00,
2013-07-14 22:47:00,76.6,76.0,30.26,NNE,25,0.0,0.0,98,0.00,,,0.00,WUHU216DAVISWMX,2013-07-15 02:47:00,
2013-07-14 22:52:00,76.7,76.1,30.26,NNE,26,0.0,0.0,98,0.00,,,0.00,WUHU216DAVISWMX,2013-07-15 02:52:00,
2013-07-14 22:57:00,76.6,76.3,30.26,NNE,26,0.0,0.0,99,0.00,,,0.00,WUHU216DAVISWMX,2013-07-15 02:57:00,
2013-07-14 23:02:00,76.4,76.1,30.26,NNE,26,0.0,0.0,99,0.00,,,0.00,WUHU216DAVISWMX,2013-07-15 03:02:00,
2013-07-14 23:07:00,76.4,76.1,30.26,NNE,25,0.0,0.0,99,0.00,,,0.00,WUHU216DAVISWMX,2013-07-15 03:07:00,
2013-07-14 23:12:00,76.3,76.0,30.26,NNE,26,0.0,0.0,99,0.00,,,0.00,WUHU216DAVISWMX,2013-07-15 03:12:00,
2013-07-14 23:17:00,76.3,76.0,30.26,NNE,26,0.0,0.0,99,0.00,,,0.00,WUHU216DAVISWMX,2013-07-15 03:17:00,
2013-07-14 23:22:00,76.3,76.0,30.26,NNE,26,0.0,0.0,99,0.00,,,0.00,WUHU216DAVISWMX,2013-07-15 03:22:00,
2013-07-14 23:27:00,76.1,75.8,30.26,NNE,26,0.0,0.0,99,0.00,,,0.00,WUHU216DAVISWMX,2013-07-15 03:27:00,
2013-07-14 23:32:00,76.2,76.2,30.26,NNE,26,0.0,0.0,100,0.00,,,0.00,WUHU216DAVISWMX,2013-07-15 03:32:00,
2013-07-14 23:37:00,76.1,76.1,30.26,NNE,26,0.0,0.0,100,0.00,,,0.00,WUHU216DAVISWMX,2013-07-15 03:37:00,
2013-07-14 23:42:00,76.0,76.0,30.26,NNE,26,0.0,0.0,100,0.00,,,0.00,WUHU216DAVISWMX,2013-07-15 03:42:00,
2013-07-14 23:47:00,76.0,76.0,30.26,NNE,26,0.0,0.0,100,0.00,,,0.00,WUHU216DAVISWMX,2013-07-15 03:47:00,
2013-07-14 23:52:00,75.9,75.9,30.26,NNE,26,0.0,0.0,100,0.00,,,0.00,WUHU216DAVISWMX,2013-07-15 03:52:00,
2013-07-14 23:57:00,75.8,75.8,30.26,NNE,25,0.0,0.0,100,0.00,,,0.00,WUHU216DAVISWMX,2013-07-15 03:57:00,